LUCKY-7 (44406 NORAD) Tracking and Keplerian Element Data

This shows tracking and keplerian element data for the satellite.

Feedback or suggestion? Click here.




ElementValue
Catalog44406
NameLUCKY-7
Epoch Orbit4114
Epoch Day93.8360545
Epoch Year2020
RAAN56.1742
Inclination97.531
Eccentricity0.0025595
Argument of Perigee29.5986
Mean Anonmoly330.6687
Mean Motion15.121252
Decay Rate8.4E-06
L11 44406U 19038W 20093.83605450 .00000840 00000-0 52241-4 0 9994
L22 44406 97.5310 56.1742 0025595 29.5986 330.6687 15.12125200 41147

Live tracking and technical data element details for LUCKY-7 (NORAD 44406). LUCKY-7 can be tracked NOW for your location showing map with azimuth and elevation plus other details from your city location.

Track the satellite on the map from your city or location and see movement details for azimuth, elevation, latitude, longitude, range, height, and movement on the map or in text.







IsCatalogInMostPopularTable: catalog: 44406, numindb: 49
Update: records affected: 1



GetName: 44406 LUCKY-7

Hit Count: updated at: Thu, 09 Apr 2020 06:04:43 GMT